Regional Weather Roundup
Issued by NWS

Home | Current Version | Previous Version | Text Only | Print | Product List | Glossary On
Versions: 1 2 3 4 5 6 7 8 9 10 11 12 13 14 15 16 17 18 19 20 21 22 23 24 25 26 27 28 29 30 31 32 33 34 35 36 37 38 39 40 41 42 43 44 45 46 47 48 49 50
000
ASUS43 KDMX 170107
RWRIA

WEATHER ROUNDUP FOR IOWA
NATIONAL WEATHER SERVICE DES MOINES IA
700 PM CST TUE DEC 16 2014

NOTE: "FAIR" INDICATES FEW OR NO CLOUDS BELOW 12,000 FEET WITH NO
SIGNIFICANT WEATHER AND/OR OBSTRUCTIONS TO VISIBILITY.

* - THESE STATIONS ARE NOT NWS STATIONS...THUS NOT UNDER NWS
QUALITY CONTROL.  THEY ALSO DO NOT REPORT WEATHER SUCH
AS PRECIPITATION OR FOG.

IAZ001>003-012>014-020>022-031>034-043>046-170200-
   NORTHWEST IOWA

CITY           SKY/WX    TMP DP  RH WIND       PRES   REMARKS
CARROLL *      MOCLDY    19  14  79 NW20      30.30S WCI   4
CHEROKEE *     MOCLDY    16  14  93 N10       30.32S WCI   3
DENISON *      CLEAR     18  14  86 NW9       30.31R WCI   6
LE MARS *      CLEAR     16  12  86 NW8       30.35R WCI   5
ORANGE CITY *  CLEAR     16  10  79 N10       30.31S WCI   3
SHELDON *      PTCLDY    12   9  85 NW10      30.30S WCI  -1
SIOUX CITY     CLEAR     19  13  77 NW8       30.35R WCI   9
SPENCER        CLOUDY    13   8  81 NW10      30.31R WCI   0
STORM LAKE *   FLURRIES  16  12  86 NW20      30.30R WCI  -1
$$

IAZ055>058-069>071-079>083-090>094-170200-
   SOUTHWEST IOWA

CITY           SKY/WX    TMP DP  RH WIND       PRES   REMARKS
ATLANTIC *     CLEAR     21  16  79 NW9G16    30.32R WCI  11
AUDUBON *      CLEAR     19  12  73 NW9       30.31R WCI   9
CLARINDA *     CLEAR     25  19  80 NW5G12    30.34S WCI  19
COUNCIL BLFS * CLEAR     21  18  86 NW12G18   30.32R WCI   9
CRESTON *      PTCLDY    21  19  93 NW6G12    30.30R WCI  14
HARLAN  *      CLEAR     21  18  86 NW5       30.36R WCI  15
LAMONI         CLEAR     24  19  81 NW9       30.29R WCI  14
RED OAK *      CLEAR     23  18  80 NW7       30.34R WCI  15
SHENANDOAH *   CLEAR     25  19  80 NW8       30.35S WCI  16
$$

IAZ047>049-059>061-072>074-084-170200-
   CENTRAL IOWA

CITY           SKY/WX    TMP DP  RH WIND       PRES   REMARKS
AMES           CLOUDY    21  14  74 NW18G24   30.29R WCI   6
ANKENY *       CLOUDY    25  18  74 NW14      30.30R WCI  13
CHARITON *     CLOUDY    25  19  80 NW18      30.29R WCI  11
DES MOINES     CLOUDY    25  17  72 NW20      30.30R WCI  11
GRINNELL*      CLOUDY    21  16  79 NW18G24   30.27R WCI   6
KNOXVILLE *    CLOUDY    25  18  74 NW13G20   30.27R WCI  13
MARSHALLTOWN   FLURRIES  18  12  77 NW16      30.27R WCI   3
PELLA *        CLOUDY    25  19  80 NW14      30.30R WCI  13
PERRY *        CLOUDY    23  18  80 NW13      30.30S WCI  11
$$

IAZ004>006-015-016-023>025-035-036-170200-
   NORTH CENTRAL IOWA

CITY           SKY/WX    TMP DP  RH WIND       PRES   REMARKS
ALGONA *       FLURRIES  16   9  73 NW12G21   30.30R WCI   3
CLARION *      FLURRIES  14  10  85 NW18      30.29R WCI  -3
ESTHERVILLE    MOCLDY    12   7  80 NW15      30.29R WCI  -4
FORT DODGE *   CLOUDY    16   7  67 NW9       30.31S WCI   4
MASON CITY     CLOUDY    16  11  80 NW20      30.26R WCI  -1
FOREST CITY *  FLURRIES  18  12  79 NW14      30.26R WCI   4
IOWA FALLS *   FLURRIES  16  10  79 NW17      30.29R WCI   0
$$

IAZ007>011-017>019-026>030-037>042-050>054-066-170200-
   NORTHEAST IOWA

CITY           SKY/WX    TMP DP  RH WIND       PRES   REMARKS
CEDAR RAPIDS   CLOUDY    20  16  84 NW18      30.23R WCI   5
CHARLES CITY * LGT SNOW  19  14  79 NW16G24   30.23R WCI   5
CLINTON *      CLOUDY    27  19  74 NW21G26   30.19R WCI  13
DECORAH *      FLURRIES  21  18  86 NW9G15    30.17R WCI  11
DUBUQUE        CLOUDY    24  21  88 NW16      30.14R WCI  11
MONTICELLO *   CLOUDY    23  19  86 NW17G25   30.19R WCI   9
OELWEIN *      FLURRIES  19  16  86 NW21      30.21R WCI   3
WATERLOO       CLOUDY    18  12  77 NW22G28   30.25R WCI   1
$$

IAZ064-065-067-068-078-170200-
   EAST CENTRAL IOWA

CITY           SKY/WX    TMP DP  RH WIND       PRES   REMARKS
DAVENPORT      CLOUDY    25  19  78 W18G31    30.19R WCI  11
IOWA CITY      CLOUDY    21  15  78 NW13G26   30.26R WCI   9
MT. PLEASANT * CLOUDY    25  18  74 NW14G24   30.26R WCI  13
MUSCATINE *    CLOUDY    25  18  74 NW15G22   30.26R WCI  12
QUAD CITIES    CLOUDY    26  19  74 NW23G30   30.20R WCI  11
$$

IAZ062-063-075>077-085>089-095>099-170200-
   SOUTHEAST IOWA

CITY           SKY/WX    TMP DP  RH WIND       PRES   REMARKS
BURLINGTON     CLOUDY    25  20  81 NW12G21   30.24R WCI  14
FAIRFIELD *    CLOUDY    25  18  74 NW13G21   30.27R WCI  13
FORT MADISON * CLOUDY    28  21  74 W15       30.26R WCI  17
KEOKUK *       CLOUDY    28  21  74 W13       30.25R WCI  18
OSKALOOSA *    CLOUDY    23  18  80 NW18G25   30.27R WCI   9
CENTERVILLE *  CLOUDY    27  21  80 W17       30.29R WCI  14
OTTUMWA        CLOUDY    24  17  74 NW21G26   30.27R WCI   9
WASHINGTON *   CLOUDY    23  21  93 NW18      30.26R WCI   9
$$

ABBREVIATIONS USED IN REMARKS
   TC - TEMPERATURES IN CELSIUS
  WCI - WIND CHILL INDEX
   HX - HEAT INDEX
  VSB - VISIBILITY
$$




USA.gov is the U.S. government's official web portal to all federal, state and local government web resources and services.